Bedford, MA

6:56 AM EDT on October 17, 2019 (GMT -0400)
Hanscom

Weather History for KBED - September, 2019

Change the Weather History Date:

Monday, September 16, 2019

  Actual Average Record
Temperature  
Mean Temperature 63 °F -  
Max Temperature 75 °F 72 °F 89 °F (1957)
Min Temperature 52 °F 49 °F 32 °F (1964)
Degree Days  
Heating Degree Days 2    
Growing Degree Days 13 (Base 50)    
Moisture  
Dew Point 49 °F    
Average Humidity 62    
Maximum Humidity 84    
Minimum Humidity 37    
Precipitation  
Precipitation 0.00 in - - ()
Sea Level Pressure  
Sea Level Pressure 30.07 in    
Wind  
Wind Speed 4 mph ()    
Max Wind Speed 17 mph    
Max Gust Speed 24 mph    
Visibility 10.0 miles    
Events      
Averages and records for this station are not official NWS values.
T = Trace of Precipitation, MM = Missing Value Source: Averaged Metar Reports

Daily Weather History Graph

Daily Weather History Graph

Search for Another Location

Airport or City:

Astronomy

Sep. 16, 2019 Rise Set
Actual Time 6:25 AM EDT 6:53 PM EDT
Civil Twilight 5:57 AM EDT 7:21 PM EDT
Nautical Twilight 5:24 AM EDT 7:54 PM EDT
Astronomical Twilight 4:49 AM EDT 8:29 PM EDT
Moon 8:24 PM EDT (9/16) 8:31 AM EDT (9/16)
Length of Visible Light 13h 24m
Length of Day
12h 27m
Waning Gibbous, 94% of the Moon is Illuminated
Sep 16
Waning Gibbous
Sep 21
Last Quarter
Sep 28
New
Oct 5
First Quarter
Oct 13
Full

Hourly Weather History & Observations

Time (EDT) Temp. Dew Point Humidity Pressure Visibility Wind Dir Wind Speed Gust Speed Precip Events Conditions
12:51 AM 57.9 °F 53.1 °F 84% 30.06 in 10.0 mi Calm Calm - N/A   Clear
1:51 AM 60.1 °F 54.0 °F 80% 30.06 in 10.0 mi Calm Calm - N/A   Clear
2:51 AM 57.9 °F 53.1 °F 84% 30.06 in 10.0 mi Calm Calm - N/A   Clear
3:51 AM 57.0 °F 52.0 °F 83% 30.07 in 10.0 mi NW 3.5 mph - N/A   Clear
4:51 AM 57.0 °F 52.0 °F 83% 30.07 in 10.0 mi Calm Calm - N/A   Clear
5:51 AM 55.9 °F 51.1 °F 84% 30.08 in 10.0 mi Calm Calm - N/A   Clear
6:51 AM 57.0 °F 51.1 °F 81% 30.11 in 10.0 mi WNW 3.5 mph - N/A   Scattered Clouds
7:51 AM 60.1 °F 50.0 °F 69% 30.11 in 10.0 mi WNW 4.6 mph - N/A   Scattered Clouds
8:51 AM 64.9 °F 48.9 °F 56% 30.11 in 10.0 mi NNW 6.9 mph - N/A   Clear
9:51 AM 66.0 °F 46.0 °F 48% 30.11 in 10.0 mi NW 17.3 mph 24.2 mph N/A   Scattered Clouds
10:51 AM 68.0 °F 45.0 °F 43% 30.09 in 10.0 mi NW 15.0 mph 20.7 mph N/A   Clear
11:51 AM 70.0 °F 46.0 °F 42% 30.07 in 10.0 mi NW 9.2 mph - N/A   Clear
12:51 PM 72.0 °F 46.0 °F 40% 30.06 in 10.0 mi NW 12.7 mph 19.6 mph N/A   Scattered Clouds
1:51 PM 73.9 °F 46.0 °F 37% 30.04 in 10.0 mi NNW 9.2 mph - 0.00 in   Scattered Clouds
2:51 PM 73.9 °F 46.0 °F 37% 30.03 in 10.0 mi NW 10.4 mph - 0.00 in   Scattered Clouds
3:51 PM 73.9 °F 46.9 °F 38% 30.03 in 10.0 mi NNW 6.9 mph - N/A   Scattered Clouds
4:51 PM 73.9 °F 46.9 °F 38% 30.02 in 10.0 mi NW 9.2 mph - N/A   Scattered Clouds
5:51 PM 72.0 °F 46.9 °F 41% 30.03 in 10.0 mi NNW 6.9 mph - 0.00 in   Clear
6:51 PM 66.0 °F 48.9 °F 54% 30.05 in 10.0 mi North 3.5 mph - N/A   Partly Cloudy
7:51 PM 63.0 °F 48.9 °F 60% 30.06 in 10.0 mi Calm Calm - N/A   Partly Cloudy
8:51 PM 57.0 °F 48.9 °F 74% 30.08 in 10.0 mi Calm Calm - N/A   Partly Cloudy
9:51 PM 54.0 °F 48.0 °F 80% 30.09 in 10.0 mi Calm Calm - N/A   Clear
10:51 PM 53.1 °F 46.9 °F 80% 30.10 in 10.0 mi Calm Calm - N/A   Clear
11:51 PM 52.0 °F 46.9 °F 83% 30.10 in 10.0 mi Calm Calm - N/A   Clear